Lid_Strength_Index
1 0 0 0 0 -0 0 -0 -0 -1 -1 -0 -0 -0 -0 -0 -1 -0 -0 -0 0 -0 -0 0 0 -0 -0 0 0 0 0 1 3 1 -0 -1 -0 -0 -1 -1 -1 -1 -1
1 1 1 0 0 0 0 -0 -0 -0 -1 -0 -1 -0 -0 -0 -1 -0 0 -0 0 0 0 0 0 0 -0 -0 -0 0 -0 0 1 2 0 0 -0 -1 -1 -0 -1 -1 -1
1 1 1 1 1 1 0 -0 -0 -0 -0 -0 -0 -0 -0 -0 -0 -0 -0 0 0 0 -0 0 0 0 0 0 0 1 0 0 0 1 1 -0 -0 -0 0 -0 -0 -0 -0
1 1 1 1 1 1 0 0 -0 -0 -0 -0 -0 -0 -0 -0 -0 -0 -0 0 0 0 -0 -0 -0 0 0 0 0 0 0 1 0 1 1 1 0 0 0 1 2 1 2
1 1 1 0 0 0 0 0 0 -0 -0 -0 -0 -0 -0 -0 0 -0 -0 0 0 0 0 -0 -0 -0 1 0 0 0 -0 1 1 1 2 1 1 2 2 1 2 2 3
1 1 1 1 0 1 0 0 0 0 0 -0 0 0 0 0 2 3 1 0 0 0 1 0 -0 0 0 2 3 2 0 1 1 2 2 2 2 1 1 2 2 3 4
1 1 1 1 1 1 0 0 0 0 0 0 0 0 0 0 4 4 3 0 0 0 0 0 0 -0 0 -0 2 3 3 3 2 0 1 1 1 0 0 1 2 2 2
1 1 1 1 1 1 1 1 0 0 1 1 0 0 0 0 4 5 4 -0 0 0 0 0 0 0 0 0 0 0 0 -0 -0 0 0 -0 -0 -1 -0 0 0 1 1
2 1 1 1 1 1 1 1 1 1 1 1 0 0 1 0 4 5 3 0 1 0 0 -0 0 0 2 4 1 1 1 0 4 6 5 5 4 3 1 0 2 2 3
1 1 1 1 1 1 1 1 0 1 1 1 1 0 1 0 3 5 4 1 1 1 0 0 3 1 4 6 1 1 2 1 1 0 1 3 4 2 3 -1 0 2 2
1 1 1 1 1 0 0 0 1 1 1 1 1 1 0 0 0 6 7 0 1 1 1 1 0 6 7 8 7 0 1 0 1 1 2 3 3 2 1 0 -1 0 2
1 1 1 1 0 0 1 1 1 1 1 2 2 1 1 0 4 7 8 7 3 1 1 1 1 7 9 9 8 6 7 5 1 3 4 4 4 5 4 3 4 4 3
1 1 1 1 0 0 1 1 1 1 2 2 2 2 2 0 0 6 7 7 7 2 1 2 6 9 10 8 9 8 7 3 3 4 3 4 4 6 6 7 7 8 8
1 1 1 1 1 0 1 1 1 2 2 2 2 3 2 2 1 0 1 2 5 4 3 2 4 6 7 5 4 5 5 3 3 3 4 7 7 7 7 7 7 7 8
1 1 1 1 1 1 1 1 1 1 4 2 2 2 3 2 1 7 8 3 2 4 4 2 2 2 2 2 2 3 4 3 4 6 7 7 7 7 8 7 8 8 8
2 2 1 1 1 1 2 1 9 9 11 12 12 8 2 6 9 11 13 13 12 11 3 2 2 2 3 4 4 5 5 6 6 7 7 7 8 8 8 7 8 9 10
1 1 1 2 1 2 2 2 3 4 10 11 11 12 12 11 13 13 14 13 12 9 2 2 2 3 4 5 6 6 7 6 6 6 7 6 7 7 7 8 9 9 9
1 6 1 1 1 1 2 2 2 2 3 2 7 10 11 14 14 14 14 12 3 4 2 3 4 4 5 5 6 6 6 6 6 7 6 6 6 7 6 8 8 8 8
1 1 1 1 1 2 1 1 2 3 3 4 4 7 9 12 13 13 12 3 3 4 4 5 5 5 5 5 6 6 6 6 6 6 6 6 6 6 6 6 7 9 9
1 2 2 1 1 2 2 2 2 3 3 4 4 4 4 5 4 4 4 4 4 5 5 5 5 5 5 5 6 6 6 6 6 6 7 7 6 6 5 5 7 7 5
1 1 2 1 2 2 2 2 2 3 3 3 4 5 10 4 4 4 5 4 5 5 5 5 5 6 6 6 6 6 6 6 6 7 8 7 6 6 5 5 5 5 4
1 1 1 2 1 2 2 2 3 3 3 3 4 5 10 4 4 4 4 4 3 4 4 4 4 5 6 6 6 6 7 7 7 7 7 5 5 5 4 3 2 3 2
1 2 2 2 2 3 2 2 3 3 3 3 4 3 3 3 3 2 3 3 3 4 4 4 5 5 5 5 4 4 5 4 4 5 6 6 5 2 2 2 2 2 3
2 1 1 2 2 2 2 2 3 5 3 3 2 2 1 1 1 1 1 1 2 2 3 3 3 3 3 3 3 4 4 4 4 4 3 2 2 2 1 2 2 2 2
2 1 2 2 2 2 2 2 4 3 3 2 1 1 1 1 1 1 2 1 1 2 2 2 2 2 2 3 3 3 7 9 2 5 1 1 1 1 1 2 2 2 2
1 1 1 2 2 2 2 2 3 3 3 1 1 1 1 1 2 2 1 1 1 1 2 2 2 2 2 2 2 7 13 11 5 9 1 0 1 1 1 2 2 2 2